This demonstration page uses our WeatherBlox Daily Observations layout. Learn more.

Left ArrowRight Arrow

40.92945, -100.16068

Hourly Observations for March 19, 2021

Temp ( °F °C ) Dew Point ( °F °C ) Humidity (%) Winds ( mph kmh ) Pressure ( in mb ) Visibility ( mi km ) Precip ( " mm )
12:15 am 00:15 Clear 32 -0.2 29 -1.7 90 90 E 3 6 30.49 1033 10 16 N/A
12:35 am 00:35 Clear 30 -0.9 28 -2.5 89 89 N N/A 30.51 1033 10 16 N/A
12:55 am 00:55 Clear 31 -0.8 28 -2.3 90 90 N N/A 30.51 1033 10 16 N/A
1:15 am 01:15 Clear 30 -1.1 28 -2.3 92 92 N N/A 30.51 1033 10 16 N/A
1:35 am 01:35 Clear 29 -1.6 27 -2.7 92 92 N N/A 30.51 1033 10 16 N/A
1:55 am 01:55 Clear 30 -1.3 28 -2.2 94 94 N N/A 30.51 1033 10 16 N/A
2:15 am 02:15 Clear 30 -1 28 -2 93 93 N N/A 30.52 1033 10 16 N/A
2:35 am 02:35 Clear 31 -0.7 29 -1.9 92 92 N N/A 30.52 1033 10 16 N/A
2:55 am 02:55 Clear 30 -1.1 28 -2.3 92 92 N N/A 30.52 1034 10 16 N/A
3:15 am 03:15 Clear 30 -1.1 28 -2 94 94 N N/A 30.52 1034 10 16 N/A
3:35 am 03:35 Clear 29 -1.6 28 -2.3 95 95 N N/A 30.51 1033 10 16 N/A
3:55 am 03:55 Clear 30 -1.1 28 -2 94 94 N N/A 30.51 1033 10 16 N/A
4:15 am 04:15 Clear 29 -1.4 28 -2.2 94 94 N N/A 30.50 1033 10 16 N/A
4:35 am 04:35 Clear 29 -1.9 28 -2.5 96 96 N N/A 30.51 1033 10 16 N/A
4:55 am 04:55 Clear 29 -1.6 28 -2.3 95 95 N N/A 30.50 1033 10 16 N/A
5:15 am 05:15 Clear 29 -1.5 28 -2.1 96 96 N N/A 30.50 1033 7 11 N/A
5:35 am 05:35 Clear 28 -2 27 -2.6 96 96 N N/A 30.51 1033 7 11 N/A
5:55 am 05:55 Clear 28 -2 28 -2.5 96 96 N N/A 30.51 1033 7 11 N/A
6:15 am 06:15 Clear 28 -2.1 27 -2.7 96 96 N N/A 30.51 1033 7 11 N/A
6:35 am 06:35 Clear 28 -2 27 -3 93 93 SE 3 6 30.51 1033 10 16 N/A
6:55 am 06:55 Clear 27 -3 27 -3 100 100 N N/A 30.52 1033 10 16 N/A
7:16 am 07:16 Clear 28 -2 27 -3 93 93 SE 3 6 30.51 1033 10 16 N/A
7:35 am 07:35 Clear 28 -2 27 -3 93 93 SSE 3 6 30.51 1033 10 16 N/A
7:57 am 07:57 Sunny 28 -2 27 -3 93 93 SE 3 6 30.51 1033 7 11 N/A
8:16 am 08:16 Sunny 28 -2 27 -3 93 93 SSE 3 6 30.51 1033 10 16 N/A
8:37 am 08:37 Sunny 30 -1 28 -2 93 93 SSE 5 7 30.51 1033 10 16 N/A
8:55 am 08:55 Sunny 30 -1 28 -2 93 93 SSE 5 7 30.51 1033 10 16 N/A
9:16 am 09:16 Sunny 32 undefined 28 -2 87 87 S 7 11 30.50 1033 10 16 N/A
9:37 am 09:37 Sunny 34 1 30 -1 87 87 S 8 13 30.49 1032 10 16 N/A
9:58 am 09:58 Sunny 36 2 30 -1 81 81 S 10 17 30.48 1032 10 16 N/A
10:17 am 10:17 Sunny 37 3 30 -1 75 75 S 12 19 30.47 1032 10 16 N/A
10:35 am 10:35 Sunny 39 4 32 undefined 75 75 S 12 19 30.46 1031 10 16 N/A
10:57 am 10:57 Sunny 41 5 32 undefined 70 70 S 14 22 30.45 1031 10 16 N/A
11:15 am 11:15 Sunny 43 6 34 1 71 71 S 12 19 30.44 1031 10 16 N/A
11:35 am 11:35 Sunny 43 6 34 1 71 71 S 14 22 30.43 1030 10 16 N/A
11:55 am 11:55 Sunny 45 7 32 undefined 61 61 S 17 28 30.41 1030 10 16 N/A
12:17 pm 12:17 Sunny 45 7 34 1 66 66 S 14 22 30.40 1029 10 16 N/A
12:36 pm 12:36 Sunny 46 8 34 1 62 62 S 13 20 30.38 1029 10 16 N/A
12:55 pm 12:55 Sunny 46 8 34 1 62 62 S 14 22 30.38 1029 10 16 N/A
1:17 pm 13:17 Sunny 48 9 34 1 58 58 S 16 26 30.35 1028 10 16 N/A
1:35 pm 13:35 Sunny 48 9 34 1 58 58 S 15 24 30.35 1028 10 16 N/A
1:57 pm 13:57 Sunny 50 10 34 1 54 54 S 18 30 30.32 1027 10 16 N/A
2:16 pm 14:16 Sunny 52 11 34 1 50 50 S 16 26 30.30 1026 10 16 N/A
2:36 pm 14:36 Sunny 52 11 36 2 54 54 S 16 26 30.29 1026 10 16 N/A
2:55 pm 14:55 Sunny 52 11 34 1 50 50 S 18 30 30.28 1025 10 16 N/A
3:15 pm 15:15 Sunny 54 12 34 1 47 47 S 15 24 30.25 1024 10 16 N/A
3:35 pm 15:35 Sunny 54 12 34 1 47 47 SSE 16 26 30.25 1024 10 16 N/A
3:55 pm 15:55 Sunny 54 12 34 1 47 47 S 18 30 30.24 1024 10 16 N/A
4:15 pm 16:15 Sunny 54 12 36 2 51 51 S 17 28 30.24 1024 10 16 N/A
4:35 pm 16:35 Sunny 55 13 36 2 47 47 S 17 28 30.23 1024 10 16 N/A
4:55 pm 16:55 Sunny 55 13 34 1 44 44 S 20 31 30.22 1023 10 16 N/A
5:15 pm 17:15 Sunny 55 13 36 2 47 47 S 18 30 30.21 1023 10 16 N/A
5:35 pm 17:35 Sunny 55 13 36 2 47 47 SSE 22 35 30.21 1023 10 16 N/A
5:55 pm 17:55 Sunny 55 13 34 1 44 44 S 17 28 30.20 1023 10 16 N/A
6:17 pm 18:17 Sunny 55 13 34 1 44 44 S 20 31 30.20 1023 10 16 N/A
6:35 pm 18:35 Sunny 54 12 36 2 51 51 S 17 28 30.21 1023 10 16 N/A
6:56 pm 18:56 Sunny 54 12 34 1 47 47 S 18 30 30.21 1023 10 16 N/A
7:15 pm 19:15 Sunny 54 12 34 1 47 47 S 15 24 30.21 1023 10 16 N/A
7:35 pm 19:35 Sunny 52 11 34 1 50 50 SSE 13 20 30.23 1024 10 16 N/A
7:57 pm 19:57 Clear 48 9 34 1 58 58 SSE 10 17 30.25 1024 10 16 N/A
8:15 pm 20:15 Clear 46 8 34 1 62 62 SSE 12 19 30.26 1025 10 16 N/A
8:35 pm 20:35 Clear 46 8 34 1 62 62 SSE 10 17 30.25 1024 10 16 N/A
8:55 pm 20:55 Clear 46 8 34 1 62 62 SSE 10 17 30.25 1024 10 16 N/A
9:17 pm 21:17 Clear 45 7 34 1 66 66 SSE 9 15 30.27 1025 10 16 N/A
9:35 pm 21:35 Clear 45 7 34 1 66 66 SSE 10 17 30.27 1025 10 16 N/A
9:55 pm 21:55 Clear 45 7 34 1 66 66 SSE 12 19 30.27 1025 10 16 N/A
10:15 pm 22:15 Clear 43 6 34 1 71 71 SSE 9 15 30.28 1025 10 16 N/A
10:35 pm 22:35 Clear 43 6 34 1 71 71 SSE 12 19 30.29 1026 10 16 N/A
10:56 pm 22:56 Clear 43 6 34 1 71 71 SSE 10 17 30.29 1026 10 16 N/A
11:15 pm 23:15 Clear 43 6 34 1 71 71 SSE 12 19 30.29 1026 10 16 N/A
11:37 pm 23:37 Clear 43 6 34 1 71 71 SSE 13 20 30.29 1026 10 16 N/A
11:57 pm 23:57 Clear 41 5 34 1 76 76 SSE 13 20 30.29 1026 10 16 N/A

Powered by AerisWeather